Regional Weather Roundup
Issued by NWS Mobile, AL

Home | Current Version | Previous Version | Text Only | Print | Product List | Glossary On
Versions: 1 2 3 4 5 6 7 8 9 10 11 12 13 14 15 16 17 18 19 20 21 22 23 24 25 26 27 28 29 30 31 32 33 34 35 36 37 38 39 40 41 42 43 44 45 46 47 48 49 50
000
ASUS44 KMOB 170013
RWRMOB
REGIONAL WEATHER ROUNDUP
NATIONAL WEATHER SERVICE MOBILE AL
700 PM CDT MON OCT 16 2017

NOTE: "FAIR" INDICATES FEW OR NO CLOUDS BELOW 12,000 FEET WITH NO
      SIGNIFICANT WEATHER AND/OR OBSTRUCTIONS TO VISIBILITY.

  * THESE STATIONS ARE PART OF THE UNIVERSITY OF SOUTH ALABAMA
    MESONET AND ARE NOT UNDER NWS OR FAA QUALITY CONTROL.

ALZ061>064-170100-
COASTAL ALABAMA

CITY           SKY/WX    TMP DP  RH WIND       PRES   REMARKS
MOBILE REG APT MOCLDY    64  51  62 N9        30.12R
6HR MIN TEMP:  63; 6HR MAX TEMP:  73;

BROOKLEY FIELD CLOUDY    67  53  61 N8        30.12R
6HR MIN TEMP:  65; 6HR MAX TEMP:  73;

USA CAMPUS*    NOT AVBL
DOG RIVER*     NOT AVBL


CITY           SKY/WX    TMP DP  RH WIND       PRES   REMARKS
GULF SHORES    CLOUDY    62  57  82 NW5       30.09R

$$

ALZ051>060-170100-
INTERIOR SOUTHWEST AND SOUTH CENTRAL ALABAMA

CITY           SKY/WX    TMP DP  RH WIND       PRES   REMARKS
GREENVILLE     CLEAR     61  52  72 N5        30.12R
6HR MIN TEMP:  61; 6HR MAX TEMP:  71;

EVERGREEN      CLEAR     60  54  80 N5        30.12R
6HR MIN TEMP:  60; 6HR MAX TEMP:  71;

ATMORE*          N/A    N/A N/A N/A NW2         N/A
ANDALUSIA/OPP  CLEAR     64  54  69 N3        30.10R
6HR MIN TEMP:  64; 6HR MAX TEMP:  74;

ANDALUSIA*       N/A     61  55  82 N3        30.10R
FLORALA APT    PTCLDY    62  55  77 N3        30.11R
6HR MIN TEMP:  62; 6HR MAX TEMP:  70;

FLORALA*         N/A     63  57  82 W5        30.80R

$$

FLZ001>006-170100-
WESTERN FLORIDA PANHANDLE

CITY           SKY/WX    TMP DP  RH WIND       PRES   REMARKS
PENSACOLA      CLOUDY    67  54  63 N10       30.08R
6HR MIN TEMP:  67; 6HR MAX TEMP:  74;

NAS PENSACOLA  CLOUDY    64  54  69 N12       30.08R
6HR MIN TEMP:  64; 6HR MAX TEMP:  76;

MILTON         MOCLDY    61  54  77 N8        30.09R
6HR MIN TEMP:  61; 6HR MAX TEMP:  72;

WHTNG S FIELD  MOCLDY    65  52  62 N8        30.09R
6HR MIN TEMP:  65; 6HR MAX TEMP:  74;



CITY           SKY/WX    TMP DP  RH WIND       PRES   REMARKS
JAY*             N/A     61  55  82 CALM      30.11R
DUKE FIELD     MOCLDY    62  56  81 N7        30.07R
CRESTVIEW      MOCLDY    64  55  72 N5        30.09R
6HR MIN TEMP:  64; 6HR MAX TEMP:  73;

VALPARAISO     MOCLDY    65  58  78 N8        30.06R
DESTIN         MOCLDY    69  58  67 N13G23    30.06R
6HR MIN TEMP:  69; 6HR MAX TEMP:  81;


$$

MSZ076-079-170100-
INTERIOR SOUTHEAST MISSISSIPPI

CITY           SKY/WX    TMP DP  RH WIND       PRES   REMARKS
LEAKESVILLE*     N/A     63  50  63 N3        30.15
AGRICOLA*      NOT AVBL

$$

MARINE OBSERVATIONS

STATION/POSITION TIME  TEMP    WIND        PRES    WAVE
                       AIR SEA DIR/SP/G            HT/PER
                 (UTC) (F)     (DEG/KT/KT) (MB)    (FT/S)
PASCAGOULA       2348   69      20/  9/ 12 1019.3R
PETIT BOIS ISLND 2342   70      20/ 15/ 19 1019.9R
GRAND BAY        2245   71      10/ 10     1019.0R
KATRINA CUT      2330   70      20/ 19     1019.3R
CEDAR POINT      2300   69      10/ 12     1018.3
E DAUPHIN ISLAND 0000   70      10/ 23/ 28 1018.8R
MIDDLE BAY LIGHT 2330   70      10/ 23     1019.0R
USCG MOBILE BAY  2342   67 79   10/  6/  9 1019.4R
STATE DOCKS      2342   67 79              1019.3R
MEAHER PARK      2330   66     360/  5     1019.3R
WEEKS BAY        2245   67                 1018.0S
FORT MORGAN      2342   70      30/ 22/ 26   N/A
12 S ORANGE BCH  2350   69 80   20/ 25/ 29 1017.2R   3/ 4
PENSACOLA BAY    2348                      1018.6R
64 S DAUPHIN ISL 0000   73 83   20/ 19/ 25 1017.6
67 S FORT MORGAN 2330   74      20/ 14     1016.6R

$$

SELECTED LOCATIONS ACROSS THE REGION

CITY           SKY/WX    TMP DP  RH WIND       PRES   REMARKS
NEW ORLEANS    CLOUDY    71  50  47 N10G21    30.11R
GULFPORT       MOCLDY    68  48  48 N9        30.11R
PASCAGOULA AP  CLOUDY    62  52  69 N6        30.11R
PASCAGOULA*      N/A     64  52  63 CALM        N/A
HATTIESBURG    CLOUDY    64  50  60 N3        30.16R
LAUREL         PTCLDY    60  50  69 N6        30.17R
MERIDIAN       PTCLDY    61  49  64 N7        30.18R
JACKSON        PTCLDY    62  44  51 N9        30.19R
MONTGOMERY     CLEAR     64  48  56 N6        30.13R
TROY           CLOUDY    61  53  75 N5        30.12R
ASHFORD*         N/A     61  55  82 N3        30.10R
DOTHAN         PTCLDY    65  56  72 N8        30.11R
PANAMA CITY    CLOUDY    69  62  78 N12G23    30.04R

$$




USA.gov is the U.S. government's official web portal to all federal, state and local government web resources and services.